AirNav   Pilot Hours Calculator
 
 1161 users online  

1I9 Delphi Municipal Airport
Delphi, Indiana, USA

GOING TO DELPHI?


FAA INFORMATION EFFECTIVE 08 OCTOBER 2020

Location

FAA Identifier: 1I9
Lat/Long: 40-32-26.9190N 086-40-53.2790W
40-32.448650N 086-40.887983W
40.5408108,-86.6814664
(estimated)
Elevation: 671.1 ft. / 205 m (estimated)
Variation: 02W (1985)
From city: 3 miles S of DELPHI, IN
Time zone: UTC -4 (UTC -5 during Standard Time)
Zip code: 46923

Airport Operations

Airport use: Open to the public
Activation date: 11/1969
Control tower: no
ARTCC: CHICAGO CENTER
FSS: TERRE HAUTE FLIGHT SERVICE STATION
NOTAMs facility: HUF (NOTAM-D service available)
Attendance: IRREG
Wind indicator: lighted
Segmented circle: no
Lights: ACTVT MIRL RY 18/36 - CTAF.
Beacon: white-green (lighted land airport)
Operates sunset to sunrise.

Airport Communications

CTAF: 122.9
WX AWOS-3P at MCX (11 nm N): 124.05 (574-583-0531)
WX ASOS at LAF (14 nm SW): PHONE 765-743-9687
WX AWOS-3 at FKR (17 nm S): 124.325 (765-654-0328)
WX AWOS-3P at GGP (17 nm NE): 118.5 (574-737-7310)

Nearby radio navigation aids

VOR radial/distance  VOR name  Freq  Var
BVTr092/17.7BOILER VORTAC115.1001E
GUSr257/24.9GRISSOM VORTAC108.4502W
OKKr277/28.4KOKOMO VORTAC113.5005W

 
NDB name  Hdg/Dist  Freq  Var  ID
CRAWFORDSVILLE022/35.338804WCFJ -.-. ..-. .---

Airport Services

Fuel available: 100LL
Parking: tiedowns
Airframe service: MINOR
Powerplant service: MINOR

Runway Information

Runway 18/36

Dimensions: 4001 x 60 ft. / 1220 x 18 m
Surface: concrete, in good condition
Runway edge lights: medium intensity
RUNWAY 18  RUNWAY 36
Latitude: 40-32.778062N40-32.119230N
Longitude: 086-40.891552W086-40.884408W
Elevation: 670.8 ft.671.1 ft.
Traffic pattern: left
18/36 RGT TFC FOR ULTRALIGHTS.
left
Markings: basic, in good conditionbasic, in good condition
Runway end identifier lights: nono

Airport Ownership and Management from official FAA records

Ownership: Publicly-owned
Owner: CITY OF DELPHI
201 S. UNION ST.
DELPHI, IN 46923
Phone 765-564-2097
Manager: ED NAGLE
8296 W DIV LINE RD
DELPHI, IN 46923
Phone 765-564-4291
MGR. CELL 260 316 4262.

Airport Operational Statistics

Aircraft based on the field: 14
Single engine airplanes: 13
Multi engine airplanes: 1
    
Aircraft operations: avg 132/week *
77% local general aviation
23% transient general aviation
* for 12-month period ending 31 December 2019

Additional Remarks

A58-18 ROAD 60 FT FM RY END 1 FT ABOVE RY END.
A57-18 APCH SLOPE 20:1 AT DSPLCD THR DUE TO ROAD.
4'FENCE 100'W OF CL 200' SOUTH OF RY 18. THR WI PRIM SFC.
ARPT UNATNDD CHRISTMAS.
FOR CD CTC CHICAGO ARTCC AT 630-906-8921.

Instrument Procedures

There are no published instrument procedures at 1I9.

Some nearby airports with instrument procedures:

KMCX - White County Airport (11 nm N)
KLAF - Purdue University Airport (14 nm SW)
KFKR - Frankfort Municipal Airport (17 nm S)
KGGP - Logansport/Cass County Airport (17 nm NE)
KGUS - Grissom Air Reserve Base (25 nm E)
 
Loc | Ops | Rwys | IFR | FBO | Links
Com | Nav | Svcs | Stats | Notes
Area around 1I9 (Delphi Municipal Airport)
 
Road maps at: MapQuest Bing Google
 
Aerial photo
WARNING: Photo may not be current or correct
Aerial photo of 1I9 (Delphi Municipal Airport)
Photo taken 17-Aug-2008

Do you have a better or more recent aerial photo of Delphi Municipal Airport that you would like to share? If so, please send us your photo.

 
Sectional chart

 
Airport distance calculator
Flying to Delphi Municipal Airport? Find the distance to fly.

From to 1I9

Sunrise and sunset
Times for 20-Oct-2020
 Local
(UTC-4)
 Zulu
(UTC)
Morning civil twilight07:3811:38
Sunrise08:0512:05
Sunset18:5722:57
Evening civil twilight19:2523:25

Current date and time
Zulu (UTC)  21-Oct-2020 00:48:23
Local (UTC-4)  20-Oct-2020 20:48:23
 
METAR
KMCX 
11nm N 
210035Z AUTO 11006KT 7SM -RA OVC008 09/08 A3004 RMK AO2 P0001 T00910082
KLAF 
14nm SW 
202354Z 11011KT 8SM OVC009 11/10 A3002 RMK AO2 LTG DSNT N AND NW RAE11B32E46 SLP168 P0000 60005 T01110100 10139 20111 58028
KFKR 
17nm S 
210035Z AUTO 16015G18KT 7SM RA SCT065 BKN095 OVC120 12/11 A3004 RMK AO2 P0010 T01160107
KGGP 
17nm NE 
210036Z AUTO 11007KT 7SM -RA OVC005 09/09 A3006 RMK AO2 P0001
TAF
KLAF 
14nm SW 
202035Z 2021/2118 09013KT P6SM SCT018 OVC020 FM202200 12009KT P6SM VCSH OVC018 FM202300 14008KT 6SM -SHRA BR VCTS OVC012CB TEMPO 2023/2101 5SM -TSRA SCT006CB OVC012 FM210200 18010KT 5SM -SHRA BR VCTS OVC006CB WS020/21040KT FM210600 23012KT 5SM SHRA BR VCTS OVC006CB FM210900 26010KT 6SM BR VCSH OVC009 FM211200 29006KT P6SM BKN020 FM211600 29005KT P6SM BKN090
NOTAMs
Click for the latest NOTAMs
NOTAMs are issued by the DoD/FAA and will open in a separate window not controlled by AirNav.

 

 
 

FBO, Fuel Providers, and Aircraft Ground Support

  
 Business Name 
 
 Contact 
 
 Services / Description 
 
Fuel Prices
 
Comments
  
Delphi Municipal Airport 765-564-4291
no information available

If you are affiliated with Delphi Municipal Airport and would like to show here your services, contact info, web link, logo, and more, click here
100LL
SS $4.22 
 Updated 19-Oct-2020
 
   1 read write
SS=Self service
Update Fuel Prices
 

Would you like to see your business listed on this page?

 If your business provides an interesting product or service to pilots, flight crews, aircraft, or users of the Delphi Municipal Airport, you should consider listing it here.  To start the listing process, click on the button below
 
Add a business
 

Other Pages about Delphi Municipal Airport

www.delphimunicipalairport.com
 
Update a link
 
Copyright © AirNav, LLC. All rights reserved. Privacy Policy  Contact